�������l�o���
Date,Time,MP-1(��Sv/h),MP-2(��Sv/h),MP-3(��Sv/h),MP-4(��Sv/h),MP-5(��Sv/h),MP-6(��Sv/h),MP-7(��Sv/h),MP-8(��Sv/h),����,����(m/s),���J
2015/12/11,00:00,1.715,2.718,3.203,2.972,-,0.880,1.555,1.480,�k,4.0,��
2015/12/11,00:10,1.715,2.717,3.198,2.970,-,0.880,1.555,1.482,�k,4.5,��
2015/12/11,00:20,1.715,2.717,3.197,2.967,-,0.880,1.557,1.477,�k,4.5,��
2015/12/11,00:30,1.718,2.718,3.198,2.970,-,0.878,1.557,1.478,�k,3.8,��
2015/12/11,00:40,1.717,2.717,3.197,2.972,-,0.882,1.555,1.482,�k,3.4,��
2015/12/11,00:50,1.715,2.715,3.197,2.972,-,0.882,1.553,1.483,�k,2.8,�L
2015/12/11,01:00,1.713,2.715,3.197,2.972,-,0.878,1.550,1.480,�k�k��,2.3,�L
2015/12/11,01:10,1.715,2.713,3.193,2.970,-,0.880,1.553,1.480,�k,2.8,�L
2015/12/11,01:20,1.715,2.717,3.198,2.968,-,0.882,1.552,1.477,�k,3.3,��
2015/12/11,01:30,1.713,2.713,3.195,2.967,-,0.880,1.553,1.477,�k,3.2,�L
2015/12/11,01:40,1.710,2.715,3.192,2.967,-,0.882,1.552,1.477,�k,2.6,��
2015/12/11,01:50,1.712,2.715,3.195,2.968,-,0.882,1.552,1.480,�k,3.0,�L
2015/12/11,02:00,1.713,2.717,3.190,2.965,-,0.880,1.552,1.477,�k,3.6,�L
2015/12/11,02:10,1.713,2.710,3.188,2.962,-,0.880,1.552,1.475,�k,3.7,��
2015/12/11,02:20,1.715,2.707,3.187,2.965,-,0.880,1.550,1.477,�k,4.4,��
2015/12/11,02:30,1.713,2.708,3.182,2.968,-,0.878,1.552,1.475,�k,4.1,�L
2015/12/11,02:40,1.712,2.712,3.183,2.963,-,0.880,1.550,1.477,�k,3.4,�L
2015/12/11,02:50,1.717,2.708,3.180,2.963,-,0.878,1.552,1.477,�k,3.8,�L
2015/12/11,03:00,1.712,2.702,3.172,2.962,-,0.878,1.548,1.473,�k,4.5,�L
2015/12/11,03:10,1.708,2.697,3.165,2.958,-,0.878,1.547,1.472,�k,3.9,�L
2015/12/11,03:20,1.707,2.693,3.163,2.953,-,0.878,1.547,1.473,�k,4.4,�L
2015/12/11,03:30,1.708,2.692,3.163,2.953,-,0.880,1.547,1.472,�k�k��,4.8,�L
2015/12/11,03:40,1.703,2.687,3.153,2.950,-,0.878,1.545,1.473,�k�k��,5.2,�L
2015/12/11,03:50,1.698,2.680,3.145,2.943,-,0.875,1.547,1.473,�k,4.9,�L
2015/12/11,04:00,1.697,2.668,3.132,2.938,-,0.873,1.542,1.470,�k,4.6,�L
2015/12/11,04:10,1.693,2.655,3.118,2.925,-,0.875,1.542,1.472,�k,5.3,�L
2015/12/11,04:20,1.690,2.648,3.113,2.913,-,0.872,1.538,1.467,�k,4.7,�L
2015/12/11,04:30,1.683,2.643,3.105,2.907,-,0.870,1.537,1.463,�k,5.6,�L
2015/12/11,04:40,1.678,2.640,3.095,2.893,-,0.865,1.535,1.462,�k,6.8,�L
2015/12/11,04:50,1.673,2.635,3.092,2.888,-,0.867,1.533,1.463,�k,7.0,�L
2015/12/11,05:00,1.667,2.628,3.083,2.882,-,0.867,1.528,1.460,�k�k��,7.3,�L
2015/12/11,05:10,1.662,2.620,3.068,2.872,-,0.860,1.525,1.458,�k�k��,8.4,�L
2015/12/11,05:20,1.660,2.613,3.062,2.863,-,0.862,1.525,1.458,�k�k��,8.6,�L
2015/12/11,05:30,1.660,2.613,3.060,2.860,-,0.862,1.525,1.460,�k�k��,8.2,�L
2015/12/11,05:40,1.658,2.608,3.060,2.860,-,0.862,1.525,1.457,�k�k��,8.1,�L
2015/12/11,05:50,1.655,2.603,3.048,2.853,-,0.860,1.525,1.457,�k�k��,8.5,�L
2015/12/11,06:00,1.650,2.598,3.045,2.847,-,0.860,1.518,1.453,�k�k��,7.3,�L
2015/12/11,06:10,1.647,2.590,3.038,2.837,-,0.858,1.520,1.452,�k�k��,7.9,�L
2015/12/11,06:20,1.643,2.587,3.030,2.827,-,0.858,1.518,1.452,�k�k��,7.4,�L
2015/12/11,06:30,1.643,2.580,3.020,2.822,-,0.857,1.517,1.452,�k�k��,7.4,�L
2015/12/11,06:40,1.642,2.570,3.018,2.818,-,0.852,1.513,1.452,�k�k��,7.5,�L
2015/12/11,06:50,1.637,2.563,3.010,2.805,-,0.852,1.510,1.448,�k�k��,8.1,�L
2015/12/11,07:00,1.633,2.553,3.005,2.798,-,0.852,1.505,1.445,�k�k��,8.0,�L
2015/12/11,07:10,1.632,2.552,2.995,2.792,-,0.850,1.503,1.447,�k�k��,7.5,�L
2015/12/11,07:20,1.628,2.550,2.992,2.792,-,0.847,1.503,1.443,�k�k��,6.8,�L
2015/12/11,07:30,1.628,2.543,2.983,2.788,-,0.847,1.498,1.445,�k�k��,8.2,�L
2015/12/11,07:40,1.630,2.540,2.987,2.787,-,0.845,1.497,1.443,�k�k��,7.9,�L
2015/12/11,07:50,1.632,2.547,2.995,2.790,-,0.845,1.500,1.443,�k�k��,7.3,�L
2015/12/11,08:00,1.635,2.557,3.003,2.798,-,0.848,1.502,1.443,�k�k��,6.9,�L
2015/12/11,08:10,1.637,2.555,2.997,2.792,-,0.848,1.502,1.445,�k�k��,7.2,�L
2015/12/11,08:20,1.635,2.547,2.988,2.787,-,0.845,1.500,1.442,�k�k��,8.3,�L
2015/12/11,08:30,1.625,2.542,2.977,2.778,-,0.845,1.498,1.445,�k�k��,8.1,�L
2015/12/11,08:40,1.627,2.537,2.970,2.777,-,0.845,1.493,1.443,�k�k��,7.9,�L
2015/12/11,08:50,1.625,2.533,2.968,2.772,-,0.843,1.495,1.442,�k�k��,8.3,�L
2015/12/11,09:00,1.622,2.530,2.965,2.767,-,0.838,1.490,1.437,�k,6.7,�L
2015/12/11,09:10,1.620,2.530,2.963,2.765,-,0.840,1.492,1.437,�k�k��,7.2,�L
2015/12/11,09:20,1.620,2.528,2.965,2.768,-,0.842,1.488,1.437,�k�k��,7.7,�L
2015/12/11,09:30,1.617,2.525,2.958,2.760,-,0.842,1.485,1.438,�k�k��,7.2,�L
2015/12/11,09:40,1.615,2.520,2.950,2.760,-,0.840,1.483,1.435,�k�k��,8.5,�L
2015/12/11,09:50,1.608,2.520,2.947,2.755,-,0.840,1.482,1.440,�k�k��,6.1,�L
2015/12/11,10:00,1.608,2.517,2.943,2.753,-,0.840,1.477,1.435,�k�k��,6.7,�L
2015/12/11,10:10,1.608,2.515,2.945,2.748,-,0.838,1.477,1.435,�k�k��,5.4,�L
2015/12/11,10:20,1.603,2.513,2.942,2.747,-,0.838,1.477,1.432,�k�k��,5.0,�L
2015/12/11,10:30,1.607,2.513,2.938,2.747,-,0.838,1.477,1.432,�k�k��,6.4,�L
2015/12/11,10:40,1.607,2.512,2.937,2.747,-,0.835,1.473,1.435,�k�k��,6.2,�L
2015/12/11,10:50,1.603,2.500,2.930,2.737,-,0.835,1.472,1.430,�k��,1.7,�L
2015/12/11,11:00,1.598,2.492,2.923,2.730,-,0.835,1.468,1.428,�k�k��,3.1,�L
2015/12/11,11:10,1.595,2.487,2.920,2.723,-,0.833,1.463,1.428,�k�k��,6.1,�L
2015/12/11,11:20,1.595,2.492,2.923,2.727,-,0.833,1.465,1.430,�k�k��,5.8,�L
2015/12/11,11:30,1.602,2.502,2.932,2.733,-,0.837,1.467,1.430,�k�k��,5.5,�L
2015/12/11,11:40,1.603,2.500,2.930,2.740,-,0.838,1.472,1.428,�k�k��,4.5,�L
2015/12/11,11:50,1.607,2.513,2.943,2.742,-,0.840,1.472,1.432,�k�k��,4.8,�L
2015/12/11,12:00,1.617,2.523,2.952,2.753,-,0.842,1.473,1.432,�k�k��,4.9,�L
2015/12/11,12:10,1.622,2.533,2.962,2.760,-,0.842,1.478,1.433,�k�k��,2.3,�L
2015/12/11,12:20,1.627,2.535,2.968,2.765,-,0.843,1.478,1.433,�k,4.2,��
2015/12/11,12:30,1.630,2.547,2.977,2.772,-,0.845,1.482,1.433,�k,3.9,��
2015/12/11,12:40,1.633,2.547,2.983,2.775,-,0.847,1.483,1.437,�k,4.6,��
2015/12/11,12:50,1.633,2.555,2.987,2.778,-,0.848,1.485,1.438,�k,4.0,��
2015/12/11,13:00,1.635,2.560,2.992,2.783,-,0.848,1.485,1.442,�k�k��,4.2,��
2015/12/11,13:10,1.638,2.560,2.997,2.783,-,0.848,1.487,1.440,�k�k��,3.9,��
2015/12/11,13:20,1.638,2.568,2.995,2.787,-,0.850,1.492,1.442,�k�k��,3.7,��
2015/12/11,13:30,1.640,2.572,3.000,2.790,-,0.850,1.492,1.442,�k�k��,6.5,��
2015/12/11,13:40,1.642,2.572,3.008,2.788,-,0.852,1.495,1.440,�k�k��,7.2,��
2015/12/11,13:50,1.642,2.570,3.007,2.792,-,0.853,1.495,1.442,�k�k��,6.8,��
2015/12/11,14:00,1.642,2.573,3.008,2.795,-,0.852,1.498,1.442,�k�k��,6.9,��
2015/12/11,14:10,1.643,2.573,3.010,2.798,-,0.855,1.498,1.440,�k�k��,7.3,��
2015/12/11,14:20,1.643,2.577,3.012,2.800,-,0.858,1.500,1.440,�k�k��,9.2,��
2015/12/11,14:30,1.645,2.578,3.015,2.803,-,0.858,1.500,1.443,�k�k��,9.3,��
2015/12/11,14:40,1.643,2.582,3.018,2.800,-,0.855,1.500,1.445,�k,8.5,��
2015/12/11,14:50,1.647,2.582,3.017,2.803,-,0.858,1.502,1.443,�k,6.9,��
2015/12/11,15:00,1.645,2.583,3.017,2.805,-,0.855,1.503,1.447,�k,9.8,��
2015/12/11,15:10,1.647,2.585,3.022,2.808,-,0.857,1.503,1.447,�k�k��,9.9,��
2015/12/11,15:20,1.647,2.587,3.020,2.808,-,0.857,1.503,1.447,�k�k��,13.0,��
2015/12/11,15:30,1.645,2.587,3.025,2.808,-,0.860,1.503,1.448,�k�k��,13.8,��
2015/12/11,15:40,1.647,2.585,3.028,2.813,-,0.858,1.505,1.447,�k�k��,14.9,�L
2015/12/11,15:50,1.645,2.583,3.025,2.807,-,0.860,1.505,1.447,�k�k��,15.2,�L
2015/12/11,16:00,1.645,2.578,3.015,2.807,-,0.858,1.503,1.443,�k�k��,13.1,�L
2015/12/11,16:10,1.642,2.563,2.998,2.795,-,0.857,1.505,1.447,�k�k��,11.9,�L
2015/12/11,16:20,1.638,2.558,2.988,2.788,-,0.858,1.500,1.447,�k�k��,12.4,�L
2015/12/11,16:30,1.637,2.557,2.992,2.785,-,0.860,1.503,1.447,�k�k��,12.1,�L
2015/12/11,16:40,1.637,2.560,2.992,2.788,-,0.858,1.503,1.447,�k�k��,14.1,��
2015/12/11,16:50,1.637,2.558,2.993,2.787,-,0.860,1.503,1.445,�k,13.2,��
2015/12/11,17:00,1.637,2.562,2.998,2.785,-,0.862,1.507,1.447,�k,10.8,��
2015/12/11,17:10,1.640,2.567,3.002,2.787,-,0.862,1.503,1.443,�k,9.9,��
2015/12/11,17:20,1.642,2.567,3.008,2.795,-,0.858,1.502,1.445,�k,9.6,��
2015/12/11,17:30,1.643,2.568,3.010,2.795,-,0.858,1.505,1.445,�k,8.8,��
2015/12/11,17:40,1.638,2.568,3.007,2.793,-,0.858,1.505,1.443,�k�k��,8.2,��
2015/12/11,17:50,1.640,2.568,3.008,2.793,-,0.860,1.502,1.443,�k�k��,9.8,��
2015/12/11,18:00,1.640,2.575,3.007,2.793,-,0.858,1.503,1.447,�k�k��,10.4,��
2015/12/11,18:10,1.642,2.575,3.007,2.793,-,0.858,1.505,1.443,�k,9.7,��
2015/12/11,18:20,1.640,2.575,3.008,2.792,-,0.858,1.505,1.443,�k,9.9,��
2015/12/11,18:30,1.642,2.577,3.013,2.797,-,0.858,1.505,1.447,�k,11.6,�L
2015/12/11,18:40,1.643,2.575,3.013,2.797,-,0.858,1.507,1.447,�k,12.5,��
2015/12/11,18:50,1.642,2.573,3.012,2.798,-,0.860,1.503,1.447,�k,8.9,��
2015/12/11,19:00,1.638,2.575,3.013,2.798,-,0.860,1.507,1.445,�k,6.7,��
2015/12/11,19:10,1.642,2.578,3.017,2.797,-,0.858,1.505,1.447,�k,7.1,��
2015/12/11,19:20,1.640,2.577,3.015,2.795,-,0.857,1.507,1.447,�k,6.8,��
2015/12/11,19:30,1.643,2.578,3.017,2.800,-,0.858,1.508,1.445,�k,7.3,��
2015/12/11,19:40,1.643,2.578,3.013,2.798,-,0.863,1.508,1.447,�k,7.0,��
2015/12/11,19:50,1.642,2.580,3.017,2.797,-,0.858,1.510,1.447,�k,8.4,��
2015/12/11,20:00,1.643,2.582,3.017,2.802,-,0.860,1.510,1.447,�k�k��,7.4,��
2015/12/11,20:10,1.642,2.577,3.017,2.805,-,0.860,1.507,1.445,�k,8.5,�L
2015/12/11,20:20,1.643,2.578,3.012,2.805,-,0.860,1.508,1.447,�k,10.7,�L
2015/12/11,20:30,1.645,2.573,3.010,2.802,-,0.862,1.508,1.448,�k,8.7,��
2015/12/11,20:40,1.643,2.578,3.012,2.803,-,0.862,1.507,1.448,�k�k��,9.1,��
2015/12/11,20:50,1.643,2.578,3.013,2.803,-,0.863,1.507,1.447,�k�k��,7.6,��
2015/12/11,21:00,1.645,2.577,3.013,2.803,-,0.860,1.507,1.447,�k�k��,8.5,��
2015/12/11,21:10,1.643,2.582,3.013,2.803,-,0.860,1.508,1.447,�k�k��,7.1,��
2015/12/11,21:20,1.643,2.580,3.015,2.803,-,0.858,1.508,1.447,�k�k��,7.4,��
2015/12/11,21:30,1.642,2.580,3.015,2.802,-,0.858,1.507,1.447,�k�k��,8.1,��
2015/12/11,21:40,1.642,2.578,3.017,2.805,-,0.858,1.508,1.447,�k�k��,8.0,��
2015/12/11,21:50,1.640,2.575,3.015,2.802,-,0.857,1.508,1.447,�k�k��,7.2,��
2015/12/11,22:00,1.642,2.583,3.017,2.803,-,0.858,1.508,1.445,�k�k��,7.7,��
2015/12/11,22:10,1.642,2.582,3.015,2.802,-,0.858,1.508,1.447,�k�k��,7.6,��
2015/12/11,22:20,1.643,2.582,3.015,2.803,-,0.857,1.510,1.445,�k,7.2,��
2015/12/11,22:30,1.642,2.583,3.017,2.800,-,0.858,1.510,1.447,�k,6.1,��
2015/12/11,22:40,1.642,2.580,3.018,2.802,-,0.858,1.508,1.447,�k,6.7,��
2015/12/11,22:50,1.643,2.585,3.018,2.807,-,0.857,1.512,1.447,�k,5.7,��
2015/12/11,23:00,1.640,2.585,3.018,2.807,-,0.858,1.510,1.445,�k,5.6,��
2015/12/11,23:10,1.640,2.582,3.022,2.803,-,0.857,1.510,1.445,�k�k��,7.5,��
2015/12/11,23:20,1.642,2.583,3.023,2.802,-,0.855,1.508,1.447,�k�k��,7.2,��
2015/12/11,23:30,1.643,2.585,3.020,2.802,-,0.858,1.510,1.448,�k�k��,6.6,��
2015/12/11,23:40,1.643,2.587,3.018,2.798,-,0.858,1.510,1.447,�k,4.3,��
2015/12/11,23:50,1.645,2.588,3.020,2.807,-,0.857,1.510,1.447,�k�k��,5.2,��
